�������l�o���
Date,Time,MP-1(��Sv/h),MP-2(��Sv/h),MP-3(��Sv/h),MP-4(��Sv/h),MP-5(��Sv/h),MP-6(��Sv/h),MP-7(��Sv/h),����,����(m/s),���J
2021/08/20,00:00,0.158,0.145,0.230,0.223,0.229,0.123,0.078,���쐼,2.3,��
2021/08/20,00:10,0.158,0.144,0.228,0.221,0.229,0.122,0.077,���쐼,1.2,��
2021/08/20,00:20,0.156,0.143,0.226,0.220,0.227,0.123,0.079,��,1.6,��
2021/08/20,00:30,0.157,0.145,0.229,0.223,0.227,0.122,0.078,���쐼,1.5,��
2021/08/20,00:40,0.159,0.144,0.228,0.221,0.229,0.122,0.078,���k��,2.5,��
2021/08/20,00:50,0.158,0.144,0.227,0.221,0.228,0.124,0.079,�k��,2.4,��
2021/08/20,01:00,0.157,0.145,0.230,0.223,0.227,0.122,0.079,�k�k��,2.0,��
2021/08/20,01:10,0.158,0.144,0.228,0.223,0.230,0.122,0.078,�k,2.5,��
2021/08/20,01:20,0.159,0.144,0.227,0.219,0.229,0.123,0.078,�k,2.1,��
2021/08/20,01:30,0.157,0.145,0.230,0.222,0.227,0.124,0.079,�k�k��,1.7,��
2021/08/20,01:40,0.158,0.144,0.230,0.223,0.229,0.123,0.078,�k,1.9,��
2021/08/20,01:50,0.159,0.144,0.227,0.221,0.231,0.123,0.078,�k�k��,1.8,��
2021/08/20,02:00,0.158,0.145,0.229,0.223,0.228,0.123,0.078,�k�k��,1.7,��
2021/08/20,02:10,0.158,0.145,0.229,0.222,0.228,0.123,0.079,�k�k��,1.6,��
2021/08/20,02:20,0.159,0.145,0.228,0.221,0.231,0.124,0.079,�k�k��,1.6,��
2021/08/20,02:30,0.157,0.147,0.231,0.224,0.229,0.124,0.079,�k,1.3,��
2021/08/20,02:40,0.158,0.144,0.229,0.223,0.228,0.123,0.078,�k,1.6,��
2021/08/20,02:50,0.159,0.146,0.228,0.221,0.231,0.123,0.079,�k�k��,1.8,��
2021/08/20,03:00,0.158,0.146,0.230,0.223,0.230,0.124,0.080,�k�k��,1.4,��
2021/08/20,03:10,0.158,0.145,0.228,0.223,0.226,0.122,0.080,�k�k��,1.6,��
2021/08/20,03:20,0.159,0.145,0.229,0.221,0.231,0.123,0.079,�k��,1.4,��
2021/08/20,03:30,0.157,0.145,0.229,0.221,0.230,0.124,0.079,�k�k��,1.0,��
2021/08/20,03:40,0.158,0.144,0.227,0.223,0.227,0.123,0.078,���k��,0.7,��
2021/08/20,03:50,0.159,0.146,0.227,0.221,0.226,0.124,0.079,�k�k��,0.6,��
2021/08/20,04:00,0.159,0.146,0.230,0.221,0.231,0.124,0.079,�k��,0.7,��
2021/08/20,04:10,0.157,0.145,0.229,0.224,0.229,0.123,0.079,�k��,0.8,��
2021/08/20,04:20,0.158,0.144,0.227,0.223,0.226,0.123,0.078,�k��,0.7,��
2021/08/20,04:30,0.158,0.146,0.229,0.222,0.229,0.124,0.079,�k��,1.0,��
2021/08/20,04:40,0.157,0.145,0.230,0.225,0.229,0.124,0.079,�k�k��,1.0,��
2021/08/20,04:50,0.157,0.145,0.228,0.222,0.227,0.122,0.079,�k,1.1,��
2021/08/20,05:00,0.159,0.146,0.230,0.222,0.228,0.123,0.079,�k,1.3,��
2021/08/20,05:10,0.157,0.143,0.231,0.223,0.231,0.124,0.079,�k��,1.0,��
2021/08/20,05:20,0.156,0.144,0.227,0.223,0.229,0.123,0.079,�k�k��,2.3,��
2021/08/20,05:30,0.158,0.145,0.227,0.219,0.226,0.123,0.078,�k�k��,2.6,��
2021/08/20,05:40,0.157,0.144,0.228,0.222,0.228,0.123,0.078,�k�k��,3.4,��
2021/08/20,05:50,0.156,0.143,0.227,0.222,0.228,0.122,0.077,�k�k��,4.0,��
2021/08/20,06:00,0.158,0.144,0.228,0.219,0.227,0.123,0.079,�k�k��,3.7,��
2021/08/20,06:10,0.157,0.143,0.229,0.221,0.230,0.123,0.078,�k�k��,3.9,��
2021/08/20,06:20,0.156,0.143,0.226,0.223,0.229,0.122,0.078,�k�k��,3.6,��
2021/08/20,06:30,0.157,0.144,0.227,0.220,0.226,0.122,0.077,�k,3.2,��
2021/08/20,06:40,0.157,0.144,0.228,0.219,0.228,0.122,0.077,�k�k��,3.0,��
2021/08/20,06:50,0.157,0.143,0.227,0.223,0.228,0.121,0.077,�k,2.8,��
2021/08/20,07:00,0.157,0.144,0.227,0.220,0.227,0.122,0.077,�k,3.1,��
2021/08/20,07:10,0.157,0.144,0.228,0.219,0.225,0.122,0.077,�k,3.6,��
2021/08/20,07:20,0.156,0.143,0.228,0.218,0.227,0.122,0.077,�k,4.0,��
2021/08/20,07:30,0.157,0.143,0.227,0.220,0.228,0.122,0.076,�k,4.5,��
2021/08/20,07:40,0.158,0.142,0.226,0.223,0.227,0.122,0.077,�k,4.7,��
2021/08/20,07:50,0.156,0.142,0.226,0.221,0.226,0.122,0.078,�k,4.2,��
2021/08/20,08:00,0.155,0.143,0.227,0.220,0.229,0.121,0.077,�k,4.2,��
2021/08/20,08:10,0.156,0.144,0.227,0.218,0.228,0.121,0.077,�k,5.1,��
2021/08/20,08:20,0.157,0.144,0.225,0.219,0.226,0.122,0.077,�k,4.4,��
2021/08/20,08:30,0.157,0.142,0.224,0.220,0.225,0.122,0.077,�k,4.2,��
2021/08/20,08:40,0.156,0.144,0.225,0.217,0.225,0.122,0.077,�k,3.8,��
2021/08/20,08:50,0.156,0.143,0.226,0.220,0.226,0.122,0.077,�k�k��,3.0,��
2021/08/20,09:00,0.157,0.143,0.226,0.218,0.226,0.121,0.077,�k�k��,3.2,��
2021/08/20,09:10,0.157,0.142,0.227,0.219,0.228,0.123,0.078,�k��,2.2,��
2021/08/20,09:20,0.156,0.143,0.229,0.218,0.229,0.122,0.077,�k�k��,2.3,��
2021/08/20,09:30,0.155,0.145,0.228,0.222,0.228,0.122,0.077,�k��,2.2,��
2021/08/20,09:40,0.157,0.143,0.228,0.221,0.227,0.122,0.078,�k��,1.7,��
2021/08/20,09:50,0.158,0.143,0.226,0.221,0.226,0.122,0.078,���k��,1.9,��
2021/08/20,10:00,0.156,0.142,0.226,0.221,0.226,0.122,0.078,�k�k��,1.3,��
2021/08/20,10:10,0.155,0.142,0.226,0.220,0.226,0.122,0.078,���k��,1.5,��
2021/08/20,10:20,0.155,0.143,0.226,0.219,0.225,0.123,0.077,�k��,1.0,��
2021/08/20,10:30,0.154,0.143,0.227,0.220,0.225,0.123,0.078,�k��,1.4,��
2021/08/20,10:40,0.155,0.143,0.229,0.219,0.225,0.122,0.078,���k��,1.2,��
2021/08/20,10:50,0.157,0.143,0.229,0.220,0.226,0.122,0.078,�k��,1.2,��
2021/08/20,11:00,0.157,0.143,0.228,0.221,0.227,0.122,0.077,���k��,1.6,��
2021/08/20,11:10,0.156,0.142,0.227,0.219,0.227,0.122,0.077,��,1.2,��
2021/08/20,11:20,0.156,0.143,0.226,0.219,0.227,0.121,0.077,���k��,1.2,��
2021/08/20,11:30,0.155,0.142,0.227,0.220,0.226,0.122,0.077,��,1.4,��
2021/08/20,11:40,0.156,0.143,0.226,0.219,0.228,0.123,0.077,���k��,0.8,��
2021/08/20,11:50,0.155,0.142,0.226,0.220,0.227,0.123,0.077,���k��,1.8,��
2021/08/20,12:00,0.155,0.142,0.228,0.223,0.225,0.122,0.077,��,1.3,��
2021/08/20,12:10,0.157,0.143,0.228,0.224,0.227,0.122,0.077,��,1.7,��
2021/08/20,12:20,0.157,0.145,0.230,0.222,0.226,0.123,0.076,���k��,2.0,��
2021/08/20,12:30,0.157,0.145,0.229,0.220,0.228,0.122,0.077,���k��,1.9,��
2021/08/20,12:40,0.156,0.143,0.228,0.220,0.226,0.123,0.077,���k��,1.0,��
2021/08/20,12:50,0.156,0.143,0.227,0.220,0.228,0.123,0.078,���k��,1.6,��
2021/08/20,13:00,0.156,0.143,0.226,0.220,0.231,0.124,0.078,���k��,2.0,��
2021/08/20,13:10,0.157,0.143,0.226,0.219,0.230,0.123,0.079,�k��,1.1,��
2021/08/20,13:20,0.158,0.143,0.225,0.220,0.229,0.121,0.077,�k��,1.9,��
2021/08/20,13:30,0.158,0.144,0.226,0.223,0.227,0.123,0.077,-,CALM,��
2021/08/20,13:40,0.158,0.144,0.229,0.224,0.226,0.122,0.077,�k��,1.2,��
2021/08/20,13:50,0.155,0.144,0.232,0.222,0.227,0.123,0.078,�k��,1.4,��
2021/08/20,14:00,0.155,0.143,0.229,0.221,0.227,0.122,0.077,�k��,1.6,��
2021/08/20,14:10,0.155,0.143,0.228,0.220,0.226,0.122,0.077,�k�k��,1.8,��
2021/08/20,14:20,0.155,0.143,0.228,0.220,0.227,0.123,0.077,�k�k��,1.1,��
2021/08/20,14:30,0.158,0.143,0.227,0.222,0.227,0.123,0.077,�k��,2.0,��
2021/08/20,14:40,0.158,0.143,0.227,0.220,0.227,0.123,0.078,�k�k��,1.6,��
2021/08/20,14:50,0.158,0.145,0.227,0.221,0.226,0.123,0.078,�k��,2.0,��
2021/08/20,15:00,0.156,0.144,0.231,0.224,0.227,0.123,0.077,�k��,2.6,��
2021/08/20,15:10,0.156,0.144,0.230,0.223,0.231,0.123,0.078,�k��,2.1,��
2021/08/20,15:20,0.159,0.144,0.227,0.222,0.230,0.123,0.078,�k�k��,1.9,��
2021/08/20,15:30,0.159,0.144,0.227,0.221,0.228,0.122,0.077,�k�k��,2.1,��
2021/08/20,15:40,0.156,0.145,0.230,0.222,0.228,0.122,0.078,�k,1.9,��
2021/08/20,15:50,0.156,0.143,0.229,0.224,0.228,0.123,0.077,�k,1.5,��
2021/08/20,16:00,0.159,0.144,0.228,0.222,0.229,0.122,0.077,�k,1.4,��
2021/08/20,16:10,0.157,0.144,0.228,0.221,0.229,0.123,0.078,�k,1.4,��
2021/08/20,16:20,0.157,0.144,0.227,0.221,0.227,0.124,0.078,�k�k��,1.9,��
2021/08/20,16:30,0.156,0.143,0.231,0.222,0.227,0.122,0.077,�k�k��,2.5,��
2021/08/20,16:40,0.158,0.145,0.228,0.222,0.229,0.123,0.078,�k�k��,2.4,��
2021/08/20,16:50,0.158,0.144,0.227,0.220,0.229,0.122,0.078,�k�k��,2.6,��
2021/08/20,17:00,0.156,0.145,0.228,0.220,0.228,0.123,0.078,�k�k��,2.2,��
2021/08/20,17:10,0.157,0.143,0.231,0.222,0.227,0.123,0.077,�k,3.4,��
2021/08/20,17:20,0.158,0.145,0.229,0.224,0.229,0.122,0.078,�k,2.6,��
2021/08/20,17:30,0.157,0.144,0.227,0.223,0.230,0.122,0.079,�k�k��,2.9,��
2021/08/20,17:40,0.156,0.143,0.229,0.220,0.228,0.123,0.078,�k,2.3,��
2021/08/20,17:50,0.158,0.144,0.231,0.222,0.227,0.121,0.077,�k,2.4,��
2021/08/20,18:00,0.158,0.145,0.229,0.223,0.229,0.122,0.078,�k�k��,2.1,��
2021/08/20,18:10,0.156,0.143,0.228,0.222,0.230,0.122,0.077,�k,1.9,��
2021/08/20,18:20,0.157,0.145,0.230,0.221,0.227,0.123,0.077,�k�k��,2.6,��
2021/08/20,18:30,0.157,0.145,0.228,0.224,0.226,0.122,0.078,�k,2.3,��
2021/08/20,18:40,0.157,0.144,0.226,0.223,0.231,0.123,0.078,�k,2.3,��
2021/08/20,18:50,0.156,0.144,0.230,0.220,0.229,0.122,0.077,�k,1.9,��
2021/08/20,19:00,0.158,0.145,0.229,0.223,0.226,0.122,0.078,�k�k��,1.5,��
2021/08/20,19:10,0.156,0.144,0.229,0.222,0.228,0.122,0.079,�k,1.7,��
2021/08/20,19:20,0.156,0.144,0.230,0.221,0.231,0.123,0.078,�k,1.6,��
2021/08/20,19:30,0.158,0.145,0.229,0.222,0.227,0.122,0.077,�k,1.1,��
2021/08/20,19:40,0.158,0.144,0.228,0.223,0.227,0.122,0.079,�k,1.9,��
2021/08/20,19:50,0.157,0.143,0.228,0.221,0.229,0.122,0.077,�k�k��,1.2,��
2021/08/20,20:00,0.157,0.144,0.229,0.221,0.229,0.122,0.077,�k,2.2,��
2021/08/20,20:10,0.158,0.144,0.228,0.224,0.227,0.123,0.078,�k�k��,2.4,��
2021/08/20,20:20,0.156,0.143,0.227,0.222,0.228,0.121,0.078,�k�k��,2.6,��
2021/08/20,20:30,0.156,0.145,0.229,0.221,0.229,0.123,0.078,�k�k��,2.8,��
2021/08/20,20:40,0.158,0.143,0.228,0.224,0.227,0.123,0.078,�k�k��,2.9,��
2021/08/20,20:50,0.157,0.143,0.228,0.222,0.227,0.122,0.078,�k,2.7,��
2021/08/20,21:00,0.156,0.144,0.229,0.221,0.228,0.122,0.078,�k,2.8,��
2021/08/20,21:10,0.158,0.145,0.229,0.223,0.229,0.124,0.077,�k,3.0,��
2021/08/20,21:20,0.157,0.144,0.227,0.223,0.225,0.124,0.078,�k�k��,2.2,��
2021/08/20,21:30,0.156,0.144,0.231,0.221,0.229,0.123,0.078,�k,3.2,��
2021/08/20,21:40,0.158,0.145,0.229,0.222,0.229,0.122,0.077,�k�k��,2.6,��
2021/08/20,21:50,0.158,0.143,0.228,0.224,0.227,0.122,0.077,�k�k��,3.0,��
2021/08/20,22:00,0.156,0.144,0.230,0.221,0.227,0.122,0.078,�k�k��,2.8,��
2021/08/20,22:10,0.157,0.146,0.229,0.221,0.229,0.122,0.078,�k�k��,3.3,��
2021/08/20,22:20,0.159,0.143,0.228,0.223,0.227,0.123,0.077,�k�k��,3.4,��
2021/08/20,22:30,0.157,0.143,0.229,0.223,0.227,0.123,0.078,�k�k��,2.9,��
2021/08/20,22:40,0.156,0.146,0.230,0.220,0.230,0.121,0.078,�k�k��,3.2,��
2021/08/20,22:50,0.159,0.145,0.228,0.223,0.228,0.122,0.077,�k�k��,3.2,��
2021/08/20,23:00,0.158,0.143,0.228,0.222,0.225,0.123,0.078,�k�k��,3.4,��
2021/08/20,23:10,0.157,0.145,0.230,0.221,0.230,0.122,0.077,�k�k��,3.2,��
2021/08/20,23:20,0.157,0.144,0.228,0.223,0.229,0.122,0.077,�k�k��,3.5,��
2021/08/20,23:30,0.158,0.143,0.229,0.225,0.226,0.123,0.077,�k�k��,3.7,��
2021/08/20,23:40,0.156,0.145,0.230,0.221,0.229,0.122,0.078,�k�k��,4.1,��
2021/08/20,23:50,0.158,0.144,0.227,0.222,0.230,0.122,0.077,�k�k��,3.7,��
